Home > Weather > Santiago > Past weeks

Flag for Chile Past Weather in Santiago, Chile — Yesterday and Last 2 Weeks

Now
39 °F

Fog.


Feels Like: 39 °F
Forecast: 40 / 62 °F
Wind: 2 mph from East

Location: Pudahuel

Current Time: May 26, 2016 at 8:37:25 AM

Latest Report: May 26, 2016 at 8:00 AM


Visibility: 2 mi

Pressure: 30.09 "Hg (28.03 "Hg at 576m altitude)

Humidity: 93%

Dew Point: 37 °F

Location of SantiagoLocation

Past Weather in Santiago — Graph

°F

Santiago Temperature Yesterday

Maximum temperature yesterday: 66 °F (at 2:00 PM)
Minimum temperature yesterday: 37 °F (at 8:00 AM)
Average temperature yesterday: 52 °F

High & Low Weather Summary for the Past Weeks

 TemperatureHumidityPressure
High72 °F (May 23, 2:00 PM)100% (May 22, 9:00 AM)30.18 "Hg (May 22, 9:00 AM)
Low34 °F (May 22, 7:00 AM)20% (May 23, 3:00 PM)29.86 "Hg (May 14, 7:00 AM)
Average54 °F74%30.05 "Hg
* Reported May 11 8:00 AM — May 26 7:00 AM, Santiago, Weather by CustomWeather, © 2016

Note: Actual official high and low records may vary slightly from our data, if they occured in-between our weather recording intervals... More about our weather records

Advertising

Santiago Weather History for the Previous 24 Hours

Scroll right to see more
 ConditionsComfort  
Time TempWeatherWind HumidityBarometerVisibility
7:00 AM
Thu, May 26
37 °FChilly.5 mph93%30.09 "Hg2 mi
6:00 AM39 °FChilly.No wind87%30.09 "Hg1 mi
5:00 AM39 °FChilly.2 mph93%30.12 "Hg1 mi
4:00 AM41 °FFog.2 mph87%30.12 "Hg2 mi
3:00 AM45 °FQuite cool.5 mph87%30.15 "Hg2 mi
2:00 AM41 °FFog.3 mph87%30.15 "Hg2 mi
1:00 AM45 °FClear.2 mph81%30.15 "Hg2 mi
12:00 AM45 °FClear.2 mph81%30.15 "Hg3 mi
11:00 PM
Wed, May 25
46 °FClear.2 mph82%30.15 "Hg4 mi
10:00 PM48 °FHaze.2 mph82%30.15 "Hg3 mi
9:00 PM50 °FHaze.1 mph76%30.15 "Hg3 mi
8:00 PM54 °FPassing clouds.2 mph67%30.15 "HgN/A
7:00 PM57 °FPassing clouds.2 mph63%30.15 "HgN/A
6:00 PM59 °FPassing clouds.8 mph63%30.15 "HgN/A
5:00 PM63 °FClear.9 mph56%30.12 "Hg10 mi
4:00 PM64 °FPartly sunny.8 mph49%30.12 "HgN/A
3:00 PM64 °FSunny.14 mph37%30.12 "Hg10 mi
2:00 PM66 °FSunny.6 mph30%30.12 "Hg10 mi
1:00 PM63 °FSunny.2 mph42%30.12 "Hg10 mi
12:00 PM59 °FClear.2 mph55%30.12 "Hg5 mi
11:00 AM52 °FClear.2 mph72%30.15 "Hg5 mi
10:00 AM50 °FClear.1 mph71%30.15 "Hg4 mi
9:00 AM43 °FFog.2 mph87%30.12 "Hg3 mi
8:00 AM37 °FFog.5 mph93%30.12 "Hg2 mi
Weather by CustomWeather, © 2016

See weather overviewHow to use our weather pages